User: anonymous   Login
Location: Unspecified
(0.0000°N, 0.0000°E)
Time: 15:47:42
(UTC+00:00)
Language:

Cosmos 1299 - Orbit

View from above orbital plane
View from above orbital plane
View from above satellite
View from above satellite

Ground track
Ground track

The orbit data is extracted from the following two-line orbital elements,

1 12783U 81081A   18197.83919026 -.00000090 +00000-0 -13127-5 0  9993
2 12783 065.1172 357.3183 0026173 138.3677 221.9383 13.85371106866585
Epoch (UTC): 16 July 2018 20:08:26
Eccentricity: 0.0026173
inclination: 65.1172°
perigee height: 926 km
apogee height: 964 km
right ascension of ascending node: 357.3183°
argument of perigee: 138.3677°
revolutions per day: 13.85371106
mean anomaly at epoch: 221.9383°
orbit number at epoch: 86658

The dashed part of the orbit path shows where the satellite is in the earth's shadow,  

DLR